Time,TemperatureF,DewpointF,PressureIn,WindDirection,WindDirectionDegrees,WindSpeedMPH,WindSpeedGustMPH,Humidity,HourlyPrecipIn,Conditions,Clouds,dailyrainin,SoftwareType,DateUTC
2013-04-17 00:29:00,45.0,38.2,29.80,WNW,295,5.4,5.4,77,0.00,,---,0.00,VWS V13.01,2013-04-17 04:29:00,
2013-04-17 08:15:00,45.0,38.2,29.80,WNW,295,5.4,5.4,77,0.00,,---,0.00,VWS V13.01,2013-04-17 12:15:00,
2013-04-17 08:20:00,45.0,38.2,29.91,WNW,282,2.2,2.2,77,0.00,,---,0.00,VWS V13.01,2013-04-17 12:20:00,
2013-04-17 08:25:00,45.0,38.2,29.91,SW,234,3.1,3.1,77,0.00,,---,0.00,VWS V13.01,2013-04-17 12:25:00,
2013-04-17 08:30:00,42.8,31.5,29.91,SW,234,3.1,3.1,64,0.00,,---,0.00,VWS V13.01,2013-04-17 12:30:00,
2013-04-17 08:35:00,42.8,31.5,29.91,WNW,302,3.6,3.6,64,0.00,,---,0.00,VWS V13.01,2013-04-17 12:35:00,
2013-04-17 08:40:00,42.8,31.5,29.91,NW,314,4.0,4.0,64,0.00,,---,0.00,VWS V13.01,2013-04-17 12:40:00,
2013-04-17 08:45:00,42.8,31.5,29.91,NW,316,3.6,3.6,64,0.00,,---,0.00,VWS V13.01,2013-04-17 12:45:00,
2013-04-17 08:50:00,42.8,31.5,29.91,WSW,246,2.7,2.7,64,0.00,,---,0.00,VWS V13.01,2013-04-17 12:50:00,
2013-04-17 08:55:00,42.8,31.5,29.91,WNW,298,3.6,3.6,64,0.00,,---,0.00,VWS V13.01,2013-04-17 12:55:00,
2013-04-17 09:00:00,42.8,31.5,29.91,WNW,298,3.6,3.6,64,0.00,,---,0.00,VWS V13.01,2013-04-17 13:00:00,
2013-04-17 09:05:00,42.8,31.5,29.91,SW,217,2.2,5.4,64,0.00,,---,0.00,VWS V13.01,2013-04-17 13:05:00,
2013-04-17 09:10:00,42.8,31.5,29.91,North,0,2.7,2.7,64,0.00,,---,0.00,VWS V13.01,2013-04-17 13:10:00,
2013-04-17 09:15:00,44.1,29.4,29.91,NW,317,0.0,0.0,56,0.00,,---,0.00,VWS V13.01,2013-04-17 13:15:00,
2013-04-17 09:20:00,44.8,30.1,29.91,North,10,4.0,4.0,56,0.00,,---,0.00,VWS V13.01,2013-04-17 13:20:00,
2013-04-17 09:25:00,44.8,29.6,29.91,NE,42,4.0,4.9,55,0.00,,---,0.00,VWS V13.01,2013-04-17 13:25:00,
2013-04-17 09:30:00,44.8,29.6,29.91,NE,35,4.0,4.0,55,0.00,,---,0.00,VWS V13.01,2013-04-17 13:30:00,
2013-04-17 09:35:00,44.8,29.6,29.91,NNE,28,3.6,3.6,55,0.00,,---,0.00,VWS V13.01,2013-04-17 13:35:00,
2013-04-17 09:40:00,44.8,29.6,29.91,NNE,28,3.6,3.6,55,0.00,,---,0.00,VWS V13.01,2013-04-17 13:40:00,
2013-04-17 09:45:00,44.8,29.6,29.91,NNE,16,4.0,4.5,55,0.00,,---,0.00,VWS V13.01,2013-04-17 13:45:00,
2013-04-17 09:50:00,44.8,29.6,29.91,NNE,16,4.0,4.0,55,0.00,,---,0.00,VWS V13.01,2013-04-17 13:50:00,
2013-04-17 09:55:00,44.8,29.6,29.91,NE,43,4.5,4.5,55,0.00,,---,0.00,VWS V13.01,2013-04-17 13:55:00,
2013-04-17 10:00:00,44.8,29.6,29.91,NNE,27,4.5,4.5,55,0.00,,---,0.00,VWS V13.01,2013-04-17 14:00:00,
2013-04-17 10:05:00,44.8,29.6,29.91,NNE,27,4.5,4.5,55,0.00,,---,0.00,VWS V13.01,2013-04-17 14:05:00,
2013-04-17 10:10:00,44.8,29.6,29.91,North,2,5.8,5.8,55,0.00,,---,0.00,VWS V13.01,2013-04-17 14:10:00,
2013-04-17 10:15:00,48.7,20.9,29.91,North,11,4.5,4.5,33,0.00,,---,0.00,VWS V13.01,2013-04-17 14:15:00,
2013-04-17 10:20:00,48.7,20.9,29.91,North,11,4.5,4.5,33,0.00,,---,0.00,VWS V13.01,2013-04-17 14:20:00,
2013-04-17 10:25:00,48.7,20.9,29.91,NNE,14,4.9,4.9,33,0.00,,---,0.00,VWS V13.01,2013-04-17 14:25:00,
2013-04-17 10:30:00,49.6,20.3,29.91,NNE,17,4.0,4.0,31,0.00,,---,0.00,VWS V13.01,2013-04-17 14:30:00,
2013-04-17 10:35:00,49.6,20.3,29.91,North,7,4.0,4.0,31,0.00,,---,0.00,VWS V13.01,2013-04-17 14:35:00,
2013-04-17 10:40:00,50.0,18.2,29.91,North,11,4.0,4.0,28,0.00,,---,0.00,VWS V13.01,2013-04-17 14:40:00,
2013-04-17 10:45:00,50.0,18.2,29.91,North,11,4.0,4.0,28,0.00,,---,0.00,VWS V13.01,2013-04-17 14:45:00,
2013-04-17 10:50:00,50.0,18.2,29.91,NNE,24,3.6,3.6,28,0.00,,---,0.00,VWS V13.01,2013-04-17 14:50:00,
2013-04-17 10:55:00,51.1,19.1,29.91,NNE,14,4.9,4.9,28,0.00,,---,0.00,VWS V13.01,2013-04-17 14:55:00,
2013-04-17 11:00:00,51.3,18.4,29.91,NNE,14,4.9,4.9,27,0.00,,---,0.00,VWS V13.01,2013-04-17 15:00:00,
2013-04-17 11:05:00,51.3,18.4,29.91,North,0,6.3,6.3,27,0.00,,---,0.00,VWS V13.01,2013-04-17 15:05:00,
2013-04-17 11:10:00,51.6,18.8,29.91,North,11,5.8,5.8,27,0.00,,---,0.00,VWS V13.01,2013-04-17 15:10:00,
2013-04-17 11:15:00,51.6,18.8,29.91,NNE,12,5.4,5.4,27,0.00,,---,0.00,VWS V13.01,2013-04-17 15:15:00,